Location: Bailleul
(50.3375°N, 2.8513°E)
Time: 21:22:58
(UTC+00:00)

IRIDIUM 114 - Pass Details

Date: 19 April 2021
Orbit: 776 x 779 km, 86.4° (Epoch: 18 May)

Event Time Altitude Azimuth Distance (km) Brightness Sun altitude
Exits shadow 20:14:55 - 172° (S) 2,600 6.6 -12.8°
Reaches altitude 10° 20:15:37 10° 171° (S) 2,327 6.4 -12.9°
Maximum altitude 20:20:47 68° 90° (E) 844 4.3 -13.6°
Drops below altitude 10° 20:25:59 10° 9° (N) 2,344 7.2 -14.2°
Sets 20:28:22 0° 7° (N) 3,276 8.0 -14.5°
